Location: Buena Vista Lake
(37.6001°N, 119.5170°W)
Time: 22:54:00
(UTC+00:00)

Cosmos 1953 - Pass Details

Date: 05 August 2024
Orbit: 506 x 524 km, 82.5° (Epoch: 07 September)

Event Time Altitude Azimuth Distance (km) Brightness Sun altitude
Rises 12:10:42 0° 174° (S) 2,593 5.5 -10.6°
Reaches altitude 10° 12:12:50 10° 169° (S) 1,715 4.6 -10.3°
Maximum altitude 12:16:28 50° 94° (E) 655 3.1 -9.6°
Drops below altitude 10° 12:20:10 10° 18° (NNE) 1,738 5.6 -9.0°
Sets 12:22:21 0° 13° (NNE) 2,633 6.5 -8.6°
